Wind_Speed
12 14 15 16 12 10 15 13 9 13 13 22 19 17 16 19 16 9 4 14 20 21 15 14 12 15 13 13 9 7 5 5 6 5 5 4 6 8 8 5 3 4 5 11 12 14 15 8 6
14 16 17 17 12 13 7 10 17 17 20 23 20 20 18 18 17 13 8 7 10 16 19 17 16 14 14 14 14 9 8 7 6 5 5 4 5 8 9 6 4 3 4 12 12 14 13 8 5
15 15 18 13 15 11 6 12 22 21 24 21 17 18 19 20 23 22 18 13 10 8 10 20 20 18 16 15 16 15 10 9 7 7 7 5 5 8 8 7 5 4 5 12 15 14 12 11 8
16 17 19 15 14 13 15 13 19 20 23 22 19 14 22 22 22 21 24 27 22 15 12 11 21 21 18 18 17 18 14 11 9 8 8 6 6 8 9 7 6 5 6 6 12 14 13 11 9
17 19 21 17 14 12 17 20 19 21 23 19 16 21 22 24 25 26 27 27 25 25 19 17 16 23 22 21 20 20 18 13 12 10 10 8 8 8 9 8 7 7 7 7 10 14 13 13 11
19 20 12 18 18 17 20 23 22 20 24 21 21 19 24 27 25 28 27 27 24 23 23 23 21 20 23 24 23 23 22 18 15 14 13 11 11 10 11 10 9 8 7 7 10 13 15 13 12
20 21 13 10 14 20 22 26 25 21 22 24 20 19 20 26 27 27 28 26 25 24 26 27 27 24 22 23 25 25 25 24 21 18 17 16 14 13 13 13 11 10 9 8 9 12 14 14 12
17 17 14 16 15 18 21 22 19 19 18 19 15 20 21 24 26 29 26 24 23 24 25 27 29 29 28 25 25 28 28 27 26 23 21 20 17 16 15 15 14 13 10 9 7 10 13 14 13
16 14 13 14 16 18 16 19 21 21 18 19 17 20 21 26 30 28 25 24 26 26 25 26 30 31 31 31 29 27 31 31 29 28 25 24 20 18 17 17 17 15 12 10 8 8 11 13 14
15 15 15 16 16 20 21 21 21 22 19 18 21 21 26 28 25 27 27 26 25 27 29 29 28 31 33 35 34 32 32 36 34 32 29 27 26 22 21 21 20 19 16 13 11 9 11 13 14
15 16 16 18 20 22 23 23 26 27 27 20 25 26 25 27 25 26 28 29 29 26 28 30 32 31 33 37 38 37 34 36 37 36 33 31 29 27 26 25 24 23 18 15 13 11 10 12 14
15 16 18 19 22 23 26 26 27 28 26 22 24 27 26 24 25 28 29 30 32 31 28 29 32 34 35 36 40 41 39 37 39 39 36 36 33 32 28 27 25 24 20 18 16 14 12 11 13
14 16 20 22 23 24 25 26 25 28 24 25 25 26 27 26 26 27 29 32 32 31 30 29 31 34 36 38 40 45 46 42 41 41 39 39 37 35 32 29 28 25 25 21 19 17 15 13 14
17 17 18 20 21 22 24 23 23 22 19 23 22 22 23 26 27 26 28 28 31 32 30 29 30 33 36 39 42 43 49 49 45 45 42 40 40 38 36 33 29 29 27 25 22 20 19 17 17
16 17 16 17 14 17 18 23 20 11 18 21 21 22 20 23 28 28 24 26 28 30 31 30 30 32 34 39 42 45 48 51 52 48 46 43 42 42 41 37 33 31 30 28 26 24 23 24 21
9 12 12 5 8 13 17 24 14 9 12 13 16 20 24 30 31 26 26 27 28 30 31 31 32 33 35 37 42 46 49 51 53 54 51 48 45 45 44 42 37 34 32 30 29 28 26 25 22
8 14 9 11 10 12 15 18 7 9 10 15 17 18 30 34 25 26 29 29 29 31 33 35 38 38 38 38 40 44 48 52 53 55 54 52 50 49 47 44 41 38 38 36 31 30 28 26 24
10 16 16 15 11 13 19 24 20 19 17 18 19 27 32 34 29 28 28 32 32 34 38 42 44 43 43 43 43 44 45 50 54 55 58 55 53 52 52 47 45 42 42 40 34 32 30 27 26
16 17 20 20 17 17 22 27 24 22 21 21 27 31 33 32 30 32 33 31 32 33 36 40 45 48 47 48 46 47 45 45 53 55 56 57 56 55 53 51 47 46 45 42 38 35 32 30 28
13 17 19 20 15 15 21 23 26 25 21 19 28 31 32 31 31 31 29 27 29 32 34 35 37 42 44 48 48 48 48 47 46 52 53 58 57 57 56 53 50 48 47 46 44 38 36 33 31
15 14 14 13 15 17 22 32 32 20 23 23 27 30 29 33 35 31 26 24 25 27 29 34 35 36 37 39 42 45 50 49 50 49 52 53 59 58 58 57 54 52 49 48 45 40 38 35 34
17 11 13 16 16 8 5 9 15 9 21 24 25 23 30 31 26 25 25 19 26 27 25 30 30 29 30 29 32 37 46 50 51 51 49 49 48 59 57 57 59 52 54 51 48 46 40 39 38
10 8 11 9 5 12 13 7 10 8 17 19 17 24 23 18 18 22 21 21 26 23 18 19 25 22 21 24 27 31 40 46 47 51 46 46 45 52 59 57 58 56 55 54 51 47 46 42 40
7 9 11 6 6 4 10 14 11 17 21 20 20 19 15 12 14 17 17 18 19 24 26 24 25 16 15 17 22 28 34 43 44 49 50 45 43 45 55 59 55 58 60 62 52 48 48 46 42
6 11 3 2 2 5 5 11 20 12 15 17 16 14 13 12 15 15 16 15 17 20 22 21 15 11 16 17 20 24 28 36 37 44 46 44 39 43 51 58 56 54 62 63 53 51 50 49 44
3 1 2 3 2 4 6 8 7 6 11 13 12 11 11 13 16 15 14 17 20 22 27 22 10 11 13 12 17 17 23 25 32 36 41 40 37 39 43 51 60 59 55 64 57 58 57 47 41
2 2 4 4 8 5 6 10 13 12 14 11 11 12 12 13 14 13 12 13 17 19 27 29 10 11 11 12 15 15 18 21 27 31 35 37 33 34 38 48 53 52 57 63 53 41 51 52 41
6 6 3 3 3 4 7 10 14 11 12 12 11 10 10 9 12 12 10 11 17 16 21 25 18 19 13 13 15 15 18 19 21 28 34 36 35 31 29 38 49 55 56 58 55 42 49 35 35
8 6 4 6 5 4 3 7 10 8 11 12 13 11 9 8 11 13 15 14 14 18 21 21 21 18 17 7 13 11 17 21 23 27 33 37 35 33 30 32 33 38 39 34 39 38 38 36 27
13 14 11 6 3 7 5 10 4 5 8 13 15 13 9 8 8 10 12 15 14 15 19 21 22 14 17 12 13 10 11 15 23 28 28 32 35 33 30 28 30 31 38 34 40 45 45 37 32
Wind_Direction
212 212 212 214 206 218 225 210 196 231 195 210 217 220 209 209 205 212 205 217 229 238 237 244 223 221 229 218 201 203 203 209 213 202 198 190 175 166 155 146 131 95 100 128 130 126 127 134 142
208 207 201 209 215 209 223 242 220 221 220 208 214 221 214 213 215 218 233 222 234 242 237 223 222 222 221 217 221 216 215 214 218 223 217 217 192 174 165 157 147 119 122 144 150 158 159 165 177
209 210 207 197 216 212 231 250 219 220 219 223 231 218 213 218 221 219 229 242 230 248 252 223 224 223 217 221 215 219 224 222 222 226 223 227 214 190 177 169 168 157 151 157 170 168 171 176 185
204 202 210 209 207 199 229 202 198 201 220 230 234 225 220 224 230 230 235 241 245 247 258 244 224 227 227 225 221 219 224 225 220 225 221 228 224 208 189 187 188 176 166 173 177 183 190 194 201
205 205 206 215 200 210 225 227 215 211 220 226 226 228 229 232 236 239 240 243 245 252 256 252 238 232 234 232 227 222 224 225 221 225 229 229 225 220 204 201 212 195 177 185 190 184 185 190 196
203 203 203 212 208 225 236 232 235 231 232 235 233 223 239 242 241 248 252 256 252 252 250 244 245 239 236 236 229 226 224 228 225 219 231 232 229 219 215 213 215 225 219 200 199 194 189 194 201
209 205 205 191 224 231 234 242 235 243 240 238 238 241 241 251 253 252 253 256 258 252 247 247 238 241 239 232 228 226 226 225 227 224 222 229 228 222 217 218 220 226 233 229 212 205 198 199 204
211 214 199 201 209 228 230 241 243 240 246 250 243 254 248 255 260 257 257 261 260 257 250 244 245 236 236 235 228 225 226 227 229 231 227 226 230 225 222 218 225 227 231 242 244 225 211 204 205
209 207 198 210 227 237 223 238 245 247 248 249 247 251 259 258 256 265 263 261 261 260 255 250 244 246 233 233 235 230 227 228 228 230 231 229 230 231 226 223 221 228 232 237 247 245 230 220 210
212 215 213 218 227 241 250 250 263 266 256 259 261 257 256 263 268 275 274 269 261 260 258 254 248 243 243 230 233 235 234 228 228 230 231 231 230 230 227 223 220 223 226 231 235 242 238 229 225
230 232 229 236 239 250 256 263 268 273 269 271 265 265 265 271 273 268 270 271 268 259 256 254 251 244 240 240 232 232 233 231 228 232 230 233 233 232 228 228 222 219 224 231 237 240 242 235 232
237 239 245 247 253 252 260 262 264 269 277 275 269 272 270 267 270 271 271 267 264 262 259 254 252 248 243 239 237 233 233 233 230 229 232 232 232 234 233 231 232 229 225 227 230 236 237 240 238
248 245 245 250 253 260 260 265 269 267 277 271 269 266 271 270 267 268 270 272 271 268 264 259 254 250 247 242 238 232 233 233 231 230 229 231 233 235 236 234 232 236 233 230 228 232 232 232 236
267 267 266 265 268 268 266 268 270 283 278 273 267 268 268 272 272 270 268 275 279 277 272 265 256 252 246 244 240 237 232 233 232 230 230 229 232 234 237 236 235 234 236 234 227 230 235 230 230
273 275 272 269 263 261 272 273 282 281 258 263 273 275 273 277 269 269 277 277 276 274 274 268 262 253 249 243 241 238 234 231 231 232 229 230 233 233 237 237 235 235 235 236 233 228 232 235 229
293 279 296 285 260 242 267 274 265 252 269 264 267 285 292 279 275 286 280 276 273 272 269 265 260 255 253 251 244 241 236 233 230 229 232 227 230 233 236 235 235 234 234 236 234 236 236 241 242
290 260 273 285 254 275 270 278 208 206 233 251 266 280 275 278 287 290 283 278 273 273 270 266 263 258 255 252 252 246 241 236 231 228 228 230 230 232 233 235 235 236 236 234 236 238 240 242 244
292 308 312 299 266 282 279 281 279 234 244 249 267 269 273 281 292 288 283 281 279 276 273 270 269 262 260 254 250 248 244 238 234 229 226 227 229 232 235 231 235 235 236 235 234 237 240 241 244
282 283 280 277 280 284 281 281 279 271 260 251 260 268 276 289 289 286 288 286 284 281 276 272 266 261 258 253 249 242 243 242 237 231 227 225 227 230 233 234 230 236 237 240 237 237 238 241 241
302 297 295 289 259 269 271 271 281 282 259 252 262 271 283 289 293 296 294 292 290 286 279 278 274 267 259 254 251 247 241 238 237 236 230 227 224 226 230 233 234 232 240 240 241 233 237 240 240
299 313 303 305 284 267 292 283 278 283 240 243 259 271 290 302 299 298 302 306 310 295 285 277 277 275 259 255 253 244 235 235 234 233 231 227 227 226 228 230 232 235 236 240 242 237 237 241 243
306 309 300 292 296 286 280 298 283 297 206 230 256 284 295 299 301 301 305 305 316 309 297 291 285 278 265 261 253 242 238 233 233 232 231 227 224 227 228 230 230 238 236 237 242 239 240 241 243
314 307 321 311 256 295 235 260 283 232 216 237 267 289 304 319 321 329 323 302 324 326 307 292 289 277 270 265 258 249 237 234 234 231 230 229 224 225 226 227 232 229 241 239 239 244 239 241 240
347 316 310 302 286 275 249 210 277 222 231 242 279 305 310 330 334 338 321 338 338 322 315 307 303 258 271 276 268 253 241 235 235 233 232 232 230 225 225 227 230 235 232 238 231 242 243 238 239
342 333 322 311 244 238 309 210 258 260 241 265 287 305 317 312 324 338 342 339 333 334 326 331 313 258 287 297 291 266 250 240 238 234 232 232 237 231 227 226 226 235 231 237 240 237 244 233 234
295 21 331 251 275 285 206 237 286 273 252 278 296 323 326 322 315 315 332 348 348 354 348 343 296 254 265 285 285 277 251 240 234 234 227 229 238 237 234 229 226 227 230 240 237 244 228 229 241
281 235 260 269 288 287 232 261 265 253 262 286 314 330 334 327 327 325 311 330 345 354 14 10 1 311 274 271 289 278 255 240 228 225 225 226 231 231 236 233 224 216 227 229 238 242 242 241 234
267 288 253 215 335 285 287 265 249 261 272 304 307 310 327 337 330 338 330 342 4 3 346 352 354 332 313 272 284 280 257 238 227 225 221 227 231 232 235 236 232 236 238 221 221 240 250 245 238
287 277 245 263 242 205 285 273 264 275 292 298 294 296 309 333 333 352 2 6 5 3 10 14 14 352 349 323 344 283 256 242 230 227 227 230 234 235 244 241 229 237 233 240 241 232 241 249 239
279 274 255 242 250 253 283 279 265 298 307 313 294 289 291 303 325 342 355 358 6 7 12 17 17 10 350 18 13 31 1 247 241 233 233 230 233 234 236 222 222 220 221 242 239 246 246 242 244
Height
3131 3132 3134 3138 3144 3140 3139 3142 3143 3143 3146 3147 3149 3152 3152 3152 3154 3158 3154 3154 3156 3158 3161 3164 3165 3167 3168 3169 3169 3170 3170 3171 3171 3171 3171 3171 3170 3171 3172 3172 3172 3172 3171 3171 3172 3173 3175 3176 3176
3128 3130 3132 3134 3137 3137 3139 3139 3139 3142 3144 3145 3146 3150 3150 3149 3151 3152 3154 3154 3155 3156 3158 3161 3163 3164 3166 3168 3169 3169 3169 3170 3170 3171 3171 3171 3170 3170 3171 3172 3172 3172 3172 3172 3172 3173 3174 3176 3177
3126 3129 3132 3132 3133 3134 3137 3134 3135 3138 3141 3143 3146 3148 3148 3146 3148 3151 3152 3152 3155 3155 3156 3158 3160 3162 3164 3165 3166 3168 3168 3169 3170 3170 3170 3170 3171 3170 3171 3171 3172 3172 3172 3171 3172 3173 3174 3175 3176
3123 3127 3130 3129 3129 3133 3132 3133 3132 3135 3137 3141 3144 3146 3145 3145 3147 3150 3150 3150 3152 3154 3155 3156 3157 3160 3162 3162 3164 3165 3167 3168 3168 3169 3169 3169 3169 3170 3170 3171 3171 3171 3171 3172 3172 3172 3173 3174 3175
3122 3124 3125 3127 3129 3129 3129 3131 3131 3133 3135 3137 3140 3139 3141 3143 3144 3145 3145 3147 3150 3152 3154 3155 3155 3157 3159 3160 3161 3163 3165 3165 3167 3167 3168 3168 3168 3169 3169 3170 3171 3171 3170 3171 3171 3172 3172 3173 3174
3120 3121 3122 3124 3126 3126 3125 3128 3130 3130 3131 3134 3136 3137 3139 3138 3140 3140 3142 3144 3149 3149 3150 3151 3152 3153 3155 3156 3158 3160 3162 3163 3164 3165 3166 3167 3167 3168 3168 3169 3169 3170 3170 3170 3170 3171 3171 3172 3173
3116 3117 3119 3121 3122 3123 3122 3122 3127 3128 3128 3130 3134 3135 3134 3133 3135 3136 3137 3140 3142 3143 3145 3146 3147 3149 3150 3152 3154 3156 3158 3160 3161 3162 3163 3164 3165 3166 3166 3167 3168 3169 3170 3170 3169 3170 3170 3171 3172
3113 3115 3116 3118 3119 3117 3117 3119 3123 3125 3126 3127 3130 3128 3131 3129 3130 3130 3132 3135 3137 3138 3140 3141 3142 3143 3146 3148 3149 3152 3154 3156 3158 3159 3160 3161 3162 3163 3164 3165 3166 3166 3168 3169 3169 3169 3169 3170 3170
3110 3112 3113 3114 3114 3113 3114 3117 3118 3121 3122 3121 3123 3124 3125 3123 3122 3126 3128 3130 3130 3132 3133 3135 3137 3138 3140 3142 3144 3146 3149 3151 3153 3154 3156 3158 3159 3161 3162 3162 3163 3165 3166 3167 3168 3169 3169 3170 3169
3107 3108 3109 3110 3111 3109 3112 3115 3115 3116 3117 3119 3118 3119 3118 3118 3121 3121 3121 3122 3124 3125 3126 3128 3130 3132 3134 3136 3137 3140 3142 3145 3148 3150 3152 3154 3155 3157 3158 3158 3159 3161 3163 3164 3165 3167 3168 3168 3169
3105 3105 3105 3106 3108 3109 3108 3110 3110 3110 3111 3115 3112 3111 3114 3113 3114 3115 3115 3115 3115 3118 3119 3120 3122 3124 3126 3129 3132 3133 3135 3138 3141 3144 3147 3149 3151 3152 3154 3155 3155 3157 3160 3162 3163 3164 3165 3167 3167
3103 3101 3102 3103 3103 3104 3103 3103 3105 3104 3105 3108 3107 3106 3106 3108 3108 3108 3107 3108 3108 3109 3112 3113 3114 3116 3118 3121 3123 3128 3128 3131 3134 3138 3141 3143 3145 3148 3150 3151 3153 3155 3157 3159 3160 3162 3163 3164 3165
3098 3098 3097 3098 3099 3099 3098 3097 3097 3097 3101 3100 3100 3100 3100 3101 3101 3101 3100 3098 3099 3101 3103 3105 3106 3108 3110 3112 3115 3118 3121 3123 3126 3131 3133 3137 3140 3142 3145 3147 3149 3151 3153 3155 3157 3158 3160 3161 3162
3094 3094 3094 3093 3094 3093 3091 3092 3091 3094 3093 3093 3094 3094 3095 3094 3094 3094 3093 3093 3093 3092 3094 3096 3097 3098 3100 3102 3105 3108 3111 3115 3118 3121 3126 3129 3133 3136 3138 3141 3144 3146 3148 3151 3153 3155 3156 3158 3158
3092 3091 3089 3089 3089 3087 3086 3085 3087 3088 3086 3086 3087 3089 3090 3089 3086 3086 3089 3087 3085 3085 3085 3088 3089 3089 3089 3092 3094 3097 3100 3104 3108 3113 3116 3121 3125 3128 3131 3135 3138 3141 3144 3146 3149 3150 3151 3153 3155
3091 3088 3085 3085 3084 3085 3085 3080 3083 3083 3083 3083 3084 3084 3084 3081 3081 3083 3082 3081 3079 3077 3077 3079 3079 3080 3081 3081 3083 3086 3089 3092 3097 3102 3108 3112 3116 3120 3124 3127 3132 3136 3138 3141 3143 3145 3146 3149 3151
3089 3087 3085 3084 3084 3084 3082 3077 3079 3078 3079 3079 3080 3080 3077 3076 3078 3077 3075 3073 3071 3069 3068 3068 3069 3070 3071 3072 3073 3074 3078 3081 3086 3091 3097 3103 3107 3111 3115 3120 3124 3128 3131 3134 3137 3140 3142 3144 3147
3087 3085 3083 3082 3083 3081 3079 3074 3073 3074 3075 3075 3074 3071 3070 3071 3072 3071 3068 3065 3063 3061 3058 3056 3055 3057 3059 3060 3061 3063 3065 3070 3073 3079 3085 3093 3098 3102 3106 3112 3116 3119 3122 3126 3131 3134 3136 3139 3142
3086 3084 3082 3080 3080 3077 3073 3070 3069 3069 3069 3069 3066 3065 3066 3066 3066 3063 3059 3056 3052 3050 3046 3045 3043 3043 3045 3046 3048 3050 3054 3058 3062 3067 3074 3080 3088 3093 3098 3102 3107 3111 3113 3120 3124 3127 3129 3133 3136
3083 3080 3078 3075 3074 3072 3069 3064 3063 3063 3063 3063 3060 3061 3061 3060 3059 3055 3052 3048 3043 3039 3036 3033 3030 3029 3031 3033 3036 3039 3043 3046 3051 3055 3062 3068 3074 3081 3088 3093 3099 3102 3106 3111 3114 3120 3122 3125 3128
3079 3077 3076 3074 3071 3069 3066 3058 3056 3054 3055 3056 3056 3057 3057 3053 3049 3046 3043 3040 3035 3031 3028 3024 3022 3020 3019 3021 3022 3025 3030 3034 3039 3043 3049 3056 3064 3070 3077 3083 3089 3093 3098 3102 3107 3112 3115 3119 3121
3076 3075 3074 3072 3070 3067 3065 3059 3051 3049 3049 3052 3054 3055 3053 3049 3043 3039 3036 3034 3031 3025 3020 3016 3013 3011 3011 3012 3012 3015 3018 3022 3028 3033 3039 3045 3053 3060 3066 3073 3078 3084 3088 3094 3098 3104 3108 3111 3113
3076 3073 3071 3069 3067 3066 3062 3063 3050 3050 3049 3052 3053 3052 3049 3044 3039 3036 3031 3029 3026 3019 3014 3010 3006 3004 3004 3004 3005 3007 3009 3014 3019 3024 3029 3034 3042 3047 3054 3061 3069 3074 3079 3085 3091 3094 3097 3104 3106
3074 3073 3070 3068 3067 3064 3055 3057 3046 3047 3049 3050 3050 3047 3044 3040 3037 3033 3029 3025 3021 3016 3009 3003 2997 2999 2998 2998 2998 2998 3000 3004 3008 3014 3021 3027 3032 3037 3043 3051 3059 3066 3069 3072 3079 3087 3090 3095 3097
3074 3072 3070 3069 3067 3063 3055 3056 3044 3046 3046 3048 3047 3044 3040 3037 3036 3032 3027 3023 3018 3014 3008 3001 2994 2994 2995 2994 2993 2993 2993 2996 2999 3004 3012 3019 3025 3029 3033 3040 3047 3056 3059 3064 3071 3077 3081 3082 3086
3074 3073 3073 3078 3069 3061 3056 3051 3044 3043 3044 3044 3043 3041 3038 3035 3033 3030 3026 3021 3016 3011 3004 2997 2993 2992 2992 2992 2990 2987 2986 2987 2991 2996 3002 3010 3017 3022 3026 3031 3037 3043 3052 3058 3061 3066 3073 3069 3078
3074 3074 3072 3071 3067 3064 3050 3045 3041 3040 3041 3041 3040 3038 3036 3034 3031 3028 3025 3020 3016 3010 3002 2996 2991 2990 2988 2985 2983 2981 2981 2982 2983 2988 2996 3001 3007 3012 3018 3022 3027 3031 3038 3044 3047 3051 3060 3048 3058
3075 3074 3072 3070 3069 3063 3047 3042 3039 3037 3038 3038 3038 3036 3035 3032 3029 3026 3022 3018 3014 3008 3002 2997 2991 2986 2981 2980 2978 2976 2975 2976 2978 2983 2988 2994 3000 3005 3010 3013 3019 3023 3026 3033 3037 3046 3053 3052 3060
3075 3072 3072 3071 3067 3064 3061 3039 3036 3037 3037 3036 3035 3034 3033 3031 3028 3025 3021 3017 3013 3008 3004 2998 2992 2985 2979 2977 2974 2970 2970 2971 2974 2977 2982 2987 2993 2999 3004 3007 3011 3018 3026 3031 3032 3039 3038 3041 3045
3070 3071 3070 3069 3065 3062 3058 3040 3034 3035 3035 3035 3033 3031 3030 3029 3027 3024 3021 3017 3013 3009 3005 2998 2993 2987 2981 2976 2974 2968 2968 2966 2967 2972 2976 2980 2985 2991 2997 3000 3006 3012 3018 3025 3028 3032 3039 3041 3043